| time (UTC) | temp C | wind direction | speed KPH | gust KPH | rain 1hr cm | rain 24hr cm | rain mn cm | humidity % | barometer mb |
| 20260506080938 | 13 | 13 | 14.5 | 20.9 | 0.00 | 0.00 | 0.00 | 78 | 1009.4 |
| 20260506080438 | 13 | 14 | 16.1 | 22.5 | 0.00 | 0.00 | 0.00 | 78 | 1009.4 |
| 20260506073439 | 13 | 19 | 8.0 | 19.3 | 0.00 | 0.00 | 0.00 | 79 | 1008.9 |
| 20260506072938 | 13 | 43 | 4.8 | 19.3 | 0.00 | 0.00 | 0.00 | 79 | 1008.7 |
| 20260506072439 | 13 | 21 | 11.3 | 19.3 | 0.00 | 0.00 | 0.00 | 79 | 1008.6 |
| 20260506071939 | 13 | 24 | 12.9 | 19.3 | 0.00 | 0.00 | 0.00 | 79 | 1008.5 |
| 20260506071438 | 13 | 46 | 9.7 | 19.3 | 0.00 | 0.00 | 0.00 | 79 | 1008.6 |
| 20260506070939 | 13 | 33 | 9.7 | 19.3 | 0.00 | 0.00 | 0.00 | 79 | 1008.8 |
| 20260506070438 | 13 | 25 | 11.3 | 19.3 | 0.00 | 0.00 | 0.00 | 79 | 1008.7 |
| 20260506062439 | 13 | 16 | 11.3 | 20.9 | 0.00 | 0.00 | 0.00 | 80 | 1008.9 |
| 20260506061939 | 13 | 15 | 14.5 | 20.9 | 0.00 | 0.00 | 0.00 | 80 | 1009.1 |
| 20260506060938 | 13 | 7 | 19.3 | 24.1 | 0.00 | 0.00 | 0.00 | 80 | 1009.2 |
| 20260506060438 | 13 | 11 | 16.1 | 24.1 | 0.00 | 0.00 | 0.00 | 80 | 1008.9 |
| 20260506050939 | 15 | 11 | 12.9 | 25.7 | 0.00 | 0.00 | 0.00 | 81 | 1009.0 |
| 20260506050439 | 15 | 9 | 14.5 | 25.7 | 0.00 | 0.00 | 0.00 | 81 | 1008.8 |
| 20260506044939 | 15 | 18 | 19.3 | 27.4 | 0.00 | 0.00 | 0.00 | 82 | 1009.0 |
| 20260506044439 | 15 | 13 | 19.3 | 27.4 | 0.00 | 0.00 | 0.00 | 82 | 1009.0 |
| 20260506043939 | 15 | 8 | 16.1 | 27.4 | 0.00 | 0.00 | 0.00 | 82 | 1009.0 |
| 20260506043440 | 15 | 11 | 19.3 | 24.1 | 0.00 | 0.00 | 0.00 | 82 | 1009.1 |
| 20260506042441 | 15 | 11 | 17.7 | 25.7 | 0.00 | 0.00 | 0.00 | 82 | 1008.9 |
| 20260506041939 | 15 | 9 | 16.1 | 25.7 | 0.00 | 0.00 | 0.00 | 82 | 1008.8 |
| 20260506041439 | 15 | 6 | 19.3 | 25.7 | 0.00 | 0.00 | 0.00 | 82 | 1008.8 |
| 20260506040940 | 15 | 0 | 17.7 | 27.4 | 0.00 | 0.00 | 0.00 | 82 | 1008.7 |
| 20260506040440 | 15 | 11 | 19.3 | 27.4 | 0.00 | 0.00 | 0.00 | 82 | 1008.6 |
| 20260506035939 | 15 | 24 | 17.7 | 24.1 | 0.00 | 0.00 | 0.00 | 82 | 1008.5 |
| 20260506035440 | 15 | 4 | 12.9 | 24.1 | 0.00 | 0.00 | 0.00 | 82 | 1008.5 |
| 20260506034940 | 15 | 8 | 19.3 | 25.7 | 0.00 | 0.00 | 0.00 | 82 | 1008.5 |
| 20260506034440 | 15 | 10 | 17.7 | 25.7 | 0.00 | 0.00 | 0.00 | 82 | 1008.6 |
| 20260506033940 | 15 | 5 | 19.3 | 29.0 | 0.00 | 0.00 | 0.00 | 82 | 1008.3 |
| 20260506033440 | 16 | 15 | 20.9 | 29.0 | 0.00 | 0.00 | 0.00 | 82 | 1008.1 |
| 20260506032940 | 16 | 22 | 16.1 | 27.4 | 0.00 | 0.00 | 0.00 | 82 | 1008.1 |
| 20260506032439 | 16 | 29 | 20.9 | 25.7 | 0.00 | 0.00 | 0.00 | 82 | 1008.0 |
| 20260506031939 | 16 | 4 | 17.7 | 25.7 | 0.00 | 0.00 | 0.00 | 82 | 1008.1 |
| 20260506031440 | 16 | 11 | 16.1 | 24.1 | 0.00 | 0.00 | 0.00 | 82 | 1008.0 |
| 20260506030940 | 16 | 358 | 17.7 | 27.4 | 0.00 | 0.00 | 0.00 | 82 | 1008.1 |
| 20260506030439 | 16 | 3 | 19.3 | 27.4 | 0.00 | 0.00 | 0.00 | 81 | 1008.0 |
| 20260506025939 | 16 | 6 | 19.3 | 24.1 | 0.00 | 0.00 | 0.00 | 81 | 1008.0 |
| 20260506025440 | 16 | 9 | 14.5 | 24.1 | 0.00 | 0.00 | 0.00 | 82 | 1007.7 |
| 20260506024940 | 16 | 9 | 19.3 | 24.1 | 0.00 | 0.00 | 0.00 | 81 | 1007.6 |
| 20260506024439 | 16 | 15 | 16.1 | 24.1 | 0.00 | 0.00 | 0.00 | 81 | 1007.5 |
| 20260506023941 | 17 | 15 | 16.1 | 22.5 | 0.00 | 0.00 | 0.00 | 81 | 1007.4 |
| 20260506022440 | 17 | 12 | 16.1 | 25.7 | 0.00 | 0.00 | 0.00 | 81 | 1006.9 |
| 20260506021940 | 17 | 6 | 14.5 | 24.1 | 0.00 | 0.00 | 0.00 | 81 | 1006.8 |
| 20260506020440 | 17 | 5 | 14.5 | 27.4 | 0.00 | 0.00 | 0.00 | 81 | 1006.2 |
| 20260506015942 | 18 | 358 | 12.9 | 20.9 | 0.00 | 0.00 | 0.00 | 80 | 1006.2 |
| 20260506015441 | 18 | 0 | 11.3 | 20.9 | 0.00 | 0.00 | 0.00 | 80 | 1006.2 |
| 20260506014941 | 18 | 12 | 14.5 | 22.5 | 0.00 | 0.00 | 0.00 | 80 | 1006.0 |
| 20260506014440 | 18 | 13 | 9.7 | 22.5 | 0.00 | 0.00 | 0.00 | 80 | 1005.9 |
| 20260506013940 | 18 | 12 | 17.7 | 24.1 | 0.00 | 0.00 | 0.00 | 79 | 1005.8 |
| 20260506013441 | 18 | 10 | 16.1 | 24.1 | 0.00 | 0.00 | 0.00 | 79 | 1005.6 |
| 20260506012940 | 19 | 17 | 17.7 | 25.7 | 0.00 | 0.00 | 0.00 | 78 | 1005.5 |
| 20260506012440 | 19 | 40 | 11.3 | 25.7 | 0.00 | 0.00 | 0.00 | 79 | 1005.4 |
| 20260506011941 | 19 | 31 | 14.5 | 19.3 | 0.00 | 0.00 | 0.00 | 79 | 1005.2 |
| 20260506011440 | 19 | 24 | 11.3 | 25.7 | 0.00 | 0.00 | 0.00 | 79 | 1005.3 |
| 20260506010942 | 19 | 3 | 12.9 | 25.7 | 0.00 | 0.00 | 0.00 | 79 | 1004.9 |
| 20260506010440 | 19 | 0 | 11.3 | 22.5 | 0.00 | 0.00 | 0.00 | 79 | 1004.6 |
| 20260506005940 | 19 | 357 | 16.1 | 24.1 | 0.00 | 0.00 | 0.00 | 79 | 1004.5 |
| 20260506005442 | 20 | 351 | 16.1 | 24.1 | 0.00 | 0.00 | 0.00 | 79 | 1004.6 |
| 20260506004940 | 20 | 341 | 19.3 | 25.7 | 0.00 | 0.00 | 0.00 | 78 | 1004.5 |
| 20260506003941 | 20 | 336 | 20.9 | 24.1 | 0.00 | 0.00 | 0.00 | 78 | 1004.4 |
| 20260506003441 | 20 | 350 | 14.5 | 25.7 | 0.00 | 0.00 | 0.00 | 78 | 1004.4 |
| 20260506002940 | 20 | 337 | 17.7 | 25.7 | 0.00 | 0.00 | 0.00 | 77 | 1004.2 |
| 20260506002441 | 20 | 343 | 20.9 | 27.4 | 0.00 | 0.00 | 0.00 | 77 | 1004.3 |
| 20260506001941 | 20 | 348 | 14.5 | 32.2 | 0.00 | 0.00 | 0.00 | 77 | 1004.0 |
| 20260506001441 | 20 | 351 | 20.9 | 32.2 | 0.00 | 0.00 | 0.00 | 76 | 1004.3 |
| 20260506000941 | 20 | 353 | 20.9 | 32.2 | 0.00 | 0.00 | 0.00 | 76 | 1004.2 |
| 20260506000440 | 21 | 343 | 20.9 | 32.2 | 0.00 | 0.00 | 0.00 | 76 | 1004.4 |
| 20260505235940 | 21 | 340 | 14.5 | 29.0 | 0.00 | 0.00 | 0.00 | 75 | 1004.2 |
| 20260505235441 | 21 | 348 | 16.1 | 29.0 | 0.00 | 0.00 | 0.00 | 75 | 1004.0 |
| 20260505234943 | 21 | 351 | 20.9 | 29.0 | 0.00 | 0.00 | 0.00 | 75 | 1004.1 |
| 20260505234441 | 21 | 349 | 17.7 | 29.0 | 0.00 | 0.00 | 0.00 | 75 | 1004.2 |
| 20260505233941 | 21 | 350 | 19.3 | 29.0 | 0.00 | 0.00 | 0.00 | 74 | 1004.1 |
| 20260505233441 | 22 | 348 | 17.7 | 29.0 | 0.00 | 0.00 | 0.00 | 75 | 1004.1 |
| 20260505232941 | 22 | 340 | 17.7 | 24.1 | 0.00 | 0.00 | 0.00 | 75 | 1003.9 |
| 20260505232441 | 22 | 353 | 16.1 | 27.4 | 0.00 | 0.00 | 0.00 | 73 | 1003.8 |
| 20260505231941 | 22 | 347 | 19.3 | 27.4 | 0.00 | 0.00 | 0.00 | 73 | 1003.4 |
| 20260505231441 | 22 | 348 | 16.1 | 27.4 | 0.00 | 0.00 | 0.00 | 72 | 1003.7 |
| 20260505230941 | 22 | 344 | 20.9 | 33.8 | 0.00 | 0.00 | 0.00 | 71 | 1003.9 |
| 20260505230441 | 23 | 334 | 20.9 | 33.8 | 0.00 | 0.00 | 0.00 | 71 | 1003.8 |
| 20260505225941 | 23 | 328 | 20.9 | 33.8 | 0.00 | 0.00 | 0.00 | 72 | 1003.9 |
| 20260505224441 | 25 | 332 | 17.7 | 25.7 | 0.00 | 0.00 | 0.00 | 69 | 1003.4 |
| 20260505223941 | 25 | 332 | 17.7 | 25.7 | 0.00 | 0.00 | 0.00 | 69 | 1003.3 |
| 20260505223441 | 25 | 340 | 16.1 | 24.1 | 0.00 | 0.00 | 0.00 | 69 | 1003.1 |
| 20260505221941 | 25 | 344 | 16.1 | 24.1 | 0.00 | 0.00 | 0.00 | 69 | 1002.8 |
| 20260505221441 | 25 | 331 | 14.5 | 29.0 | 0.00 | 0.00 | 0.00 | 69 | 1002.7 |
| 20260505220942 | 26 | 337 | 17.7 | 29.0 | 0.00 | 0.00 | 0.00 | 68 | 1002.6 |
| 20260505220442 | 26 | 350 | 22.5 | 29.0 | 0.00 | 0.00 | 0.00 | 66 | 1002.6 |
| 20260505215942 | 27 | 352 | 19.3 | 29.0 | 0.00 | 0.00 | 0.00 | 64 | 1002.4 |
| 20260505215442 | 28 | 337 | 17.7 | 22.5 | 0.00 | 0.00 | 0.00 | 60 | 1002.2 |
| 20260505214942 | 28 | 324 | 16.1 | 20.9 | 0.00 | 0.00 | 0.00 | 60 | 1002.3 |
| 20260505214441 | 27 | 323 | 14.5 | 22.5 | 0.00 | 0.00 | 0.00 | 61 | 1002.3 |
| 20260505213942 | 27 | 333 | 16.1 | 24.1 | 0.00 | 0.00 | 0.00 | 60 | 1002.4 |
| 20260505212941 | 28 | 324 | 12.9 | 27.4 | 0.00 | 0.00 | 0.00 | 56 | 1002.5 |
| 20260505212441 | 28 | 309 | 14.5 | 27.4 | 0.00 | 0.00 | 0.00 | 54 | 1002.4 |
| 20260505211942 | 28 | 308 | 16.1 | 27.4 | 0.00 | 0.00 | 0.00 | 53 | 1002.5 |
| 20260505210942 | 29 | 321 | 14.5 | 25.7 | 0.00 | 0.00 | 0.00 | 52 | 1002.5 |
| 20260505205942 | 28 | 298 | 19.3 | 24.1 | 0.00 | 0.00 | 0.00 | 49 | 1002.5 |
| 20260505205442 | 28 | 315 | 12.9 | 25.7 | 0.00 | 0.00 | 0.00 | 52 | 1002.6 |
| 20260505204942 | 28 | 320 | 19.3 | 25.7 | 0.00 | 0.00 | 0.00 | 50 | 1002.8 |
| 20260505204442 | 29 | 319 | 14.5 | 32.2 | 0.00 | 0.00 | 0.00 | 50 | 1002.7 |
| 20260505203942 | 30 | 301 | 16.1 | 32.2 | 0.00 | 0.00 | 0.00 | 52 | 1002.7 |
| 20260505203442 | 30 | 278 | 14.5 | 25.7 | 0.00 | 0.00 | 0.00 | 55 | 1002.6 |
| 20260505202942 | 30 | 262 | 14.5 | 25.7 | 0.00 | 0.00 | 0.00 | 56 | 1002.6 |
| 20260505202442 | 30 | 223 | 11.3 | 24.1 | 0.00 | 0.00 | 0.00 | 63 | 1002.5 |
| 20260505201942 | 30 | 228 | 11.3 | 25.7 | 0.00 | 0.00 | 0.00 | 64 | 1002.4 |
| 20260505201442 | 30 | 227 | 17.7 | 25.7 | 0.00 | 0.00 | 0.00 | 63 | 1002.7 |
| 20260505200942 | 30 | 216 | 14.5 | 25.7 | 0.00 | 0.00 | 0.00 | 64 | 1002.8 |
| 20260505200443 | 29 | 223 | 14.5 | 27.4 | 0.00 | 0.00 | 0.00 | 64 | 1002.8 |
| 20260505195942 | 29 | 235 | 16.1 | 27.4 | 0.00 | 0.00 | 0.00 | 63 | 1002.7 |
| 20260505195442 | 30 | 229 | 11.3 | 22.5 | 0.00 | 0.00 | 0.00 | 63 | 1002.7 |
| 20260505194942 | 30 | 228 | 12.9 | 20.9 | 0.00 | 0.00 | 0.00 | 63 | 1002.6 |
| 20260505193442 | 30 | 245 | 14.5 | 33.8 | 0.00 | 0.00 | 0.00 | 62 | 1002.8 |
| 20260505192442 | 30 | 217 | 19.3 | 33.8 | 0.00 | 0.00 | 0.00 | 63 | 1002.7 |
| 20260505191942 | 30 | 244 | 14.5 | 33.8 | 0.00 | 0.00 | 0.00 | 66 | 1002.6 |
| 20260505191442 | 29 | 219 | 14.5 | 27.4 | 0.00 | 0.00 | 0.00 | 65 | 1002.7 |
| 20260505190943 | 29 | 226 | 16.1 | 27.4 | 0.00 | 0.00 | 0.00 | 67 | 1002.7 |
| 20260505190443 | 29 | 213 | 11.3 | 24.1 | 0.00 | 0.00 | 0.00 | 66 | 1002.7 |
| 20260505185942 | 28 | 212 | 14.5 | 27.4 | 0.00 | 0.00 | 0.00 | 66 | 1002.7 |
| 20260505184943 | 28 | 217 | 11.3 | 32.2 | 0.00 | 0.00 | 0.00 | 66 | 1002.6 |
| 20260505182942 | 28 | 222 | 14.5 | 29.0 | 0.00 | 0.00 | 0.00 | 67 | 1002.8 |
| 20260505182443 | 28 | 218 | 14.5 | 27.4 | 0.00 | 0.00 | 0.00 | 67 | 1002.8 |
| 20260505180943 | 28 | 237 | 16.1 | 29.0 | 0.00 | 0.00 | 0.00 | 67 | 1002.7 |
| 20260505180443 | 28 | 218 | 14.5 | 29.0 | 0.00 | 0.00 | 0.00 | 68 | 1002.8 |
| 20260505175943 | 28 | 225 | 16.1 | 32.2 | 0.00 | 0.00 | 0.00 | 67 | 1002.9 |
| 20260505175443 | 28 | 219 | 16.1 | 32.2 | 0.00 | 0.00 | 0.00 | 68 | 1002.9 |
| 20260505174943 | 28 | 223 | 14.5 | 33.8 | 0.00 | 0.00 | 0.00 | 70 | 1002.8 |
| 20260505174443 | 27 | 222 | 22.5 | 35.4 | 0.00 | 0.00 | 0.00 | 69 | 1002.8 |
| 20260505173943 | 27 | 215 | 22.5 | 35.4 | 0.00 | 0.00 | 0.00 | 70 | 1002.8 |
| 20260505173444 | 27 | 217 | 22.5 | 35.4 | 0.00 | 0.00 | 0.00 | 72 | 1002.8 |
| 20260505172943 | 26 | 217 | 22.5 | 35.4 | 0.00 | 0.00 | 0.00 | 72 | 1002.8 |
| 20260505172443 | 26 | 220 | 20.9 | 35.4 | 0.00 | 0.00 | 0.00 | 73 | 1002.8 |
| 20260505171943 | 26 | 200 | 19.3 | 32.2 | 0.00 | 0.00 | 0.00 | 74 | 1002.7 |
| 20260505171443 | 26 | 216 | 16.1 | 32.2 | 0.00 | 0.00 | 0.00 | 75 | 1002.8 |
| 20260505170943 | 26 | 214 | 16.1 | 25.7 | 0.00 | 0.00 | 0.00 | 75 | 1002.8 |
| 20260505165943 | 25 | 202 | 17.7 | 29.0 | 0.00 | 0.00 | 0.00 | 76 | 1002.9 |
| 20260505165443 | 25 | 205 | 17.7 | 32.2 | 0.00 | 0.00 | 0.00 | 76 | 1002.8 |
| 20260505164944 | 25 | 206 | 14.5 | 32.2 | 0.00 | 0.00 | 0.00 | 76 | 1002.8 |
| 20260505164443 | 25 | 211 | 19.3 | 27.4 | 0.00 | 0.00 | 0.00 | 76 | 1002.8 |
| 20260505163943 | 25 | 205 | 16.1 | 32.2 | 0.00 | 0.00 | 0.00 | 76 | 1002.9 |
| 20260505163443 | 25 | 208 | 19.3 | 32.2 | 0.00 | 0.00 | 0.00 | 76 | 1002.9 |
| 20260505162943 | 25 | 207 | 16.1 | 29.0 | 0.00 | 0.00 | 0.00 | 77 | 1002.8 |
| 20260505161945 | 24 | 210 | 17.7 | 33.8 | 0.00 | 0.00 | 0.00 | 77 | 1002.8 |
| 20260505160943 | 24 | 216 | 22.5 | 37.0 | 0.00 | 0.00 | 0.00 | 77 | 1002.6 |
| 20260505160444 | 24 | 203 | 19.3 | 35.4 | 0.00 | 0.00 | 0.00 | 77 | 1002.6 |
| 20260505152444 | 24 | 210 | 17.7 | 41.8 | 0.00 | 0.00 | 0.00 | 78 | 1002.4 |
| 20260505151943 | 24 | 203 | 25.7 | 41.8 | 0.00 | 0.00 | 0.00 | 78 | 1002.1 |
| 20260505151444 | 24 | 211 | 22.5 | 38.6 | 0.00 | 0.00 | 0.00 | 78 | 1002.3 |
| 20260505150944 | 24 | 210 | 20.9 | 35.4 | 0.00 | 0.00 | 0.00 | 79 | 1002.4 |
| 20260505150444 | 23 | 208 | 20.9 | 35.4 | 0.00 | 0.00 | 0.00 | 79 | 1002.5 |
| 20260505140446 | 22 | 211 | 22.5 | 40.2 | 0.00 | 0.00 | 0.00 | 82 | 1002.1 |
| 20260505123945 | 21 | 209 | 20.9 | 38.6 | 0.00 | 0.00 | 0.00 | 84 | 1002.1 |
| 20260505123445 | 21 | 204 | 24.1 | 38.6 | 0.00 | 0.00 | 0.00 | 84 | 1001.9 |
| 20260505122945 | 21 | 208 | 22.5 | 37.0 | 0.00 | 0.00 | 0.00 | 84 | 1001.8 |
| 20260505122445 | 21 | 208 | 20.9 | 33.8 | 0.00 | 0.00 | 0.00 | 85 | 1001.7 |
| 20260505121945 | 21 | 206 | 19.3 | 37.0 | 0.00 | 0.00 | 0.00 | 84 | 1001.6 |
| 20260505120945 | 21 | 205 | 22.5 | 32.2 | 0.00 | 0.00 | 0.00 | 85 | 1001.5 |
| 20260505120445 | 21 | 203 | 20.9 | 33.8 | 0.00 | 0.00 | 0.00 | 85 | 1001.5 |
| 20260505115445 | 21 | 209 | 22.5 | 37.0 | 0.00 | 0.00 | 0.00 | 85 | 1001.5 |
| 20260505113946 | 21 | 207 | 20.9 | 32.2 | 0.00 | 0.00 | 0.00 | 85 | 1001.4 |
| 20260505112946 | 21 | 205 | 20.9 | 32.2 | 0.00 | 0.00 | 0.00 | 85 | 1001.5 |
| 20260505112445 | 21 | 207 | 17.7 | 33.8 | 0.00 | 0.00 | 0.00 | 85 | 1001.6 |
| 20260505111945 | 21 | 211 | 19.3 | 33.8 | 0.00 | 0.00 | 0.00 | 85 | 1001.5 |
| 20260505111445 | 21 | 209 | 20.9 | 32.2 | 0.00 | 0.00 | 0.00 | 85 | 1001.5 |
| 20260505110445 | 21 | 207 | 19.3 | 29.0 | 0.00 | 0.00 | 0.00 | 84 | 1001.5 |
| 20260505101946 | 21 | 196 | 22.5 | 33.8 | 0.00 | 0.00 | 0.00 | 83 | 1001.6 |
| 20260505101446 | 21 | 194 | 16.1 | 32.2 | 0.00 | 0.00 | 0.00 | 83 | 1001.6 |
| 20260505100946 | 21 | 205 | 19.3 | 33.8 | 0.00 | 0.00 | 0.00 | 83 | 1001.6 |
| 20260505095946 | 21 | 193 | 20.9 | 37.0 | 0.00 | 0.00 | 0.00 | 83 | 1001.6 |
| 20260505095446 | 21 | 199 | 22.5 | 37.0 | 0.00 | 0.00 | 0.00 | 83 | 1001.5 |
| 20260505094945 | 22 | 197 | 20.9 | 29.0 | 0.00 | 0.00 | 0.00 | 83 | 1001.5 |
| 20260505094446 | 22 | 192 | 17.7 | 32.2 | 0.00 | 0.00 | 0.00 | 82 | 1001.5 |
| 20260505093946 | 22 | 185 | 22.5 | 32.2 | 0.00 | 0.00 | 0.00 | 82 | 1001.5 |
| 20260505093445 | 22 | 185 | 17.7 | 37.0 | 0.00 | 0.00 | 0.00 | 82 | 1001.5 |
| 20260505092946 | 22 | 198 | 22.5 | 37.0 | 0.00 | 0.00 | 0.00 | 82 | 1001.5 |
| 20260505092446 | 22 | 186 | 22.5 | 33.8 | 0.00 | 0.00 | 0.00 | 82 | 1001.5 |
| 20260505091946 | 22 | 200 | 24.1 | 33.8 | 0.00 | 0.00 | 0.00 | 82 | 1001.6 |
| 20260505091446 | 22 | 204 | 20.9 | 32.2 | 0.00 | 0.00 | 0.00 | 82 | 1001.7 |
| 20260505090446 | 22 | 202 | 20.9 | 35.4 | 0.00 | 0.00 | 0.00 | 82 | 1001.8 |
| 20260505085946 | 22 | 199 | 20.9 | 35.4 | 0.00 | 0.00 | 0.00 | 82 | 1001.8 |
| 20260505085446 | 22 | 200 | 22.5 | 35.4 | 0.00 | 0.00 | 0.00 | 81 | 1001.8 |
| 20260505084946 | 22 | 200 | 17.7 | 32.2 | 0.00 | 0.00 | 0.00 | 81 | 1001.7 |
| 20260505083946 | 22 | 192 | 20.9 | 37.0 | 0.00 | 0.00 | 0.00 | 81 | 1001.9 |
| 20260505083446 | 22 | 196 | 22.5 | 37.0 | 0.00 | 0.00 | 0.00 | 80 | 1001.8 |
| 20260505082947 | 22 | 199 | 20.9 | 33.8 | 0.00 | 0.00 | 0.00 | 80 | 1001.8 |
| 20260505082446 | 22 | 194 | 19.3 | 32.2 | 0.00 | 0.00 | 0.00 | 80 | 1001.8 |
| 20260505081946 | 22 | 196 | 19.3 | 32.2 | 0.00 | 0.00 | 0.00 | 80 | 1001.9 |
| 20260505081447 | 22 | 197 | 19.3 | 32.2 | 0.00 | 0.00 | 0.00 | 79 | 1001.8 |